Location: Sobotiste
(48.7170°N, 17.4000°E)
Time: 07:48:16
(UTC+02:00)

YUBILEINY - Pass Details

Date: 17 March 2026
Orbit: 1477 x 1509 km, 82.5° (Epoch: 13 April)

Event Time Altitude Azimuth Distance (km) Brightness Sun altitude
Rises 02:15:13 0° 350° (N) 4,623 ? -34.4°
Reaches altitude 10° 02:18:13 10° 355° (N) 3,636 ? -34.0°
Maximum altitude 02:26:48 58° 74° (ENE) 1,697 ? -33.0°
Drops below altitude 10° 02:35:18 10° 152° (SSE) 3,607 ? -32.0°
Sets 02:38:14 0° 156° (SSE) 4,584 ? -31.7°
